Weather History for Wadesboro, NC

Change the Weather History Date:

Friday, April 19, 2013

  Actual Average (KCLT) Record (KCLT)
Temperature  
Mean Temperature 72 °F 60 °F  
Max Temperature 82 °F 73 °F 89 °F (1955)
Min Temperature 58 °F 48 °F 30 °F (1983)
Degree Days  
Heating Degree Days 0 6  
Month to date heating degree days 148  
Since 1 July heating degree days 3280  
Cooling Degree Days 6 1  
Month to date cooling degree days 18  
Year to date cooling degree days 23  
Growing Degree Days 22 (Base 50)    
Moisture  
Dew Point 64 °F    
Average Humidity 81    
Maximum Humidity 98    
Minimum Humidity 51    
Precipitation  
Precipitation 0.65 in 0.10 in 2.08 in (2014)
Month to date precipitation 1.93  
Year to date precipitation 12.67  
Snow  
Snow 0.00 in 0.00 in 0.00 in ()
Month to date snowfall 0.0  
Since 1 July snowfall 4.3  
Snow Depth -    
Sea Level Pressure  
Sea Level Pressure 29.88 in    
Wind  
Wind Speed 8 mph (South)    
Max Wind Speed 17 mph    
Max Gust Speed 43 mph    
Visibility 10 miles    
Events Rain    
T = Trace of Precipitation, MM = Missing Value Source: NWS Daily Summary

Daily Weather History Graph

Daily Weather History Graph

Search for Another Location

Airport:

Trip Planner

Search our weather history database for the weather conditions in past years. The results will help you decide how hot, cold, wet, or windy it might be!

Date:

Astronomy

Apr. 19, 2013 Rise Set
Actual Time 6:42 AM EDT 7:56 PM EDT
Civil Twilight 6:16 AM EDT 8:22 PM EDT
Nautical Twilight 5:45 AM EDT 8:54 PM EDT
Astronomical Twilight 5:12 AM EDT 9:26 PM EDT
Moon 1:53 PM EDT (4/19) 2:42 AM EDT (4/19)
Length of Visible Light 14h 05m
Length of Day
13h 13m
First Quarter, 61% of the Moon is Illuminated
Apr 19
First Quarter
Apr 25
Full
May 2
Last Quarter
May 9
New
May 18
First Quarter

Hourly Weather History & Observations

Time (EDT) Temp. Heat Index Dew Point Humidity Pressure Visibility Wind Dir Wind Speed Gust Speed Precip Events Conditions
12:15 AM 66.4 °F - 62.6 °F 88% 30.04 in 10.0 mi SE 5.8 mph - N/A   Clear
12:35 AM 66.2 °F - 62.8 °F 89% 30.02 in 10.0 mi ESE 8.1 mph - N/A   Scattered Clouds
12:55 AM 67.1 °F - 63.7 °F 89% 30.02 in 10.0 mi SE 9.2 mph - N/A   Mostly Cloudy
1:15 AM 67.1 °F - 63.7 °F 89% 30.01 in 10.0 mi SE 6.9 mph - N/A   Mostly Cloudy
1:35 AM 67.5 °F - 64.4 °F 90% 30.00 in 10.0 mi SE 8.1 mph - N/A   Overcast
1:55 AM 67.6 °F - 64.4 °F 89% 29.99 in 10.0 mi SSE 8.1 mph - N/A   Overcast
2:15 AM 68.0 °F - 64.6 °F 89% 29.98 in 10.0 mi SSE 9.2 mph - N/A   Overcast
2:35 AM 68.2 °F - 64.6 °F 88% 29.97 in 10.0 mi SSE 5.8 mph - N/A   Overcast
2:55 AM 68.4 °F - 64.9 °F 89% 29.96 in 10.0 mi SSE 9.2 mph 16.1 mph N/A   Overcast
3:15 AM 68.2 °F - 64.8 °F 89% 29.95 in 10.0 mi SSE 5.8 mph - N/A   Overcast
3:35 AM 68.4 °F - 64.9 °F 89% 29.95 in 10.0 mi SSE 6.9 mph - N/A   Overcast
3:55 AM 68.4 °F - 64.9 °F 89% 29.94 in 10.0 mi SSE 8.1 mph - N/A   Overcast
4:15 AM 68.5 °F - 64.8 °F 88% 29.93 in 10.0 mi South 4.6 mph - N/A   Overcast
4:35 AM 68.7 °F - 64.8 °F 87% 29.93 in 10.0 mi South 8.1 mph - N/A   Overcast
4:55 AM 68.5 °F - 64.8 °F 88% 29.93 in 10.0 mi South 8.1 mph - N/A   Overcast
5:15 AM 68.5 °F - 64.6 °F 87% 29.93 in 10.0 mi South 9.2 mph - N/A   Overcast
5:35 AM 68.2 °F - 64.6 °F 88% 29.92 in 10.0 mi South 5.8 mph - N/A   Mostly Cloudy
5:55 AM 68.0 °F - 64.4 °F 88% 29.91 in 10.0 mi SSE 6.9 mph - N/A   Scattered Clouds
6:15 AM 68.0 °F - 64.4 °F 88% 29.92 in 10.0 mi South 5.8 mph - N/A   Scattered Clouds
6:55 AM 68.0 °F - 64.4 °F 88% 29.93 in 10.0 mi South 5.8 mph - N/A   Mostly Cloudy
7:15 AM 68.2 °F - 64.6 °F 88% 29.92 in 10.0 mi SSE 8.1 mph - N/A   Mostly Cloudy
7:35 AM 68.5 °F - 64.8 °F 88% 29.92 in 10.0 mi SSE 5.8 mph - N/A   Mostly Cloudy
7:55 AM 69.4 °F - 65.3 °F 87% 29.92 in 10.0 mi South 9.2 mph - N/A   Overcast
8:15 AM 69.8 °F - 65.5 °F 86% 29.93 in 10.0 mi South 8.1 mph 17.3 mph N/A   Overcast
8:35 AM 70.3 °F - 65.7 °F 85% 29.93 in 10.0 mi South 10.4 mph - N/A   Overcast
8:55 AM 71.6 °F - 66.0 °F 82% 29.93 in 10.0 mi South 9.2 mph - N/A   Overcast
9:15 AM 72.0 °F - 66.0 °F 81% 29.93 in 10.0 mi South 10.4 mph 17.3 mph N/A   Overcast
9:35 AM 72.5 °F - 66.0 °F 80% 29.93 in 10.0 mi South 9.2 mph 17.3 mph N/A   Overcast
9:55 AM 73.6 °F - 66.4 °F 78% 29.92 in 10.0 mi South 11.5 mph 18.4 mph N/A   Overcast
10:15 AM 75.2 °F - 66.6 °F 74% 29.92 in 10.0 mi South 10.4 mph 19.6 mph N/A   Overcast
10:55 AM 76.5 °F - 66.2 °F 70% 29.90 in 10.0 mi South 17.3 mph 26.5 mph N/A   Mostly Cloudy
11:15 AM 77.0 °F - 66.0 °F 69% 29.90 in 10.0 mi South 12.7 mph 20.7 mph N/A   Scattered Clouds
11:35 AM 77.5 °F - 66.6 °F 69% 29.88 in 10.0 mi SSE 9.2 mph 20.7 mph N/A   Scattered Clouds
11:55 AM 78.3 °F - 66.4 °F 67% 29.87 in 10.0 mi SSE 11.5 mph 17.3 mph N/A   Clear
12:15 PM 79.0 °F - 65.8 °F 64% 29.85 in 10.0 mi SSE 16.1 mph 23.0 mph N/A   Clear
12:35 PM 80.2 °F 82.2 °F 65.7 °F 61% 29.84 in 10.0 mi SSE 15.0 mph 24.2 mph N/A   Clear
12:55 PM 81.1 °F 83.1 °F 65.7 °F 59% 29.83 in 10.0 mi SSE 16.1 mph 21.9 mph N/A   Scattered Clouds
1:15 PM 81.0 °F 82.7 °F 64.9 °F 58% 29.82 in 10.0 mi South 17.3 mph 25.3 mph N/A   Mostly Cloudy
1:35 PM 81.9 °F 83.5 °F 64.9 °F 56% 29.80 in 10.0 mi South 12.7 mph 26.5 mph N/A   Mostly Cloudy
1:55 PM 81.5 °F 83.3 °F 64.9 °F 57% 29.80 in 10.0 mi South 17.3 mph 26.5 mph N/A   Mostly Cloudy
2:15 PM 81.9 °F 83.5 °F 64.9 °F 56% 29.80 in 10.0 mi South 12.7 mph 24.2 mph N/A   Scattered Clouds
2:35 PM 81.9 °F 83.7 °F 65.5 °F 57% 29.79 in 10.0 mi SSE 13.8 mph 21.9 mph N/A   Clear
2:55 PM 82.4 °F 84.1 °F 64.8 °F 55% 29.79 in 10.0 mi South 16.1 mph 23.0 mph N/A   Scattered Clouds
3:15 PM 82.0 °F 83.6 °F 64.6 °F 55% 29.78 in 10.0 mi South 8.1 mph 18.4 mph N/A   Scattered Clouds
3:35 PM 82.4 °F 84.1 °F 64.6 °F 55% 29.78 in 10.0 mi South 15.0 mph 24.2 mph N/A   Scattered Clouds
3:55 PM 82.8 °F 83.8 °F 63.0 °F 51% 29.77 in 10.0 mi South 9.2 mph 25.3 mph N/A   Scattered Clouds
4:15 PM 82.2 °F 83.3 °F 62.8 °F 52% 29.76 in 10.0 mi South 10.4 mph 19.6 mph N/A   Scattered Clouds
4:35 PM 80.4 °F 81.8 °F 63.5 °F 56% 29.75 in 10.0 mi South 6.9 mph - N/A Rain Light Rain
5:15 PM 67.5 °F - 64.9 °F 92% 29.83 in 0.2 mi SSW 15.0 mph 42.6 mph 0.51 in Rain Heavy Rain
5:35 PM 66.2 °F - 65.3 °F 97% 29.79 in 7.0 mi SSW 6.9 mph - 0.56 in Rain Rain
5:55 PM 66.4 °F - 65.7 °F 98% 29.80 in 10.0 mi SSW 5.8 mph - 0.56 in Rain Light Rain
6:15 PM 66.9 °F - 66.2 °F 98% 29.80 in 10.0 mi South 5.8 mph - N/A Rain Rain
6:35 PM 67.1 °F - 66.2 °F 97% 29.80 in 10.0 mi SSE 4.6 mph - 0.01 in Rain Light Rain
6:55 PM 67.3 °F - 66.6 °F 98% 29.80 in 10.0 mi South 5.8 mph - 0.03 in Rain Light Rain
7:15 PM 68.0 °F - 66.7 °F 96% 29.80 in 10.0 mi South 8.1 mph - 0.01 in Rain Light Rain
7:35 PM 67.8 °F - 66.2 °F 95% 29.81 in 10.0 mi South 6.9 mph - 0.01 in Rain Light Rain
7:55 PM 67.6 °F - 66.2 °F 95% 29.82 in 10.0 mi South 8.1 mph - 0.02 in Rain Light Rain
8:15 PM 67.6 °F - 66.2 °F 95% 29.83 in 10.0 mi South 8.1 mph - N/A Rain Rain
8:35 PM 67.6 °F - 66.2 °F 95% 29.84 in 10.0 mi South 4.6 mph - 0.01 in Rain Light Rain
8:55 PM 67.6 °F - 66.2 °F 95% 29.85 in 10.0 mi South 6.9 mph - 0.01 in Rain Light Rain
9:15 PM 67.5 °F - 65.8 °F 95% 29.84 in 10.0 mi South 5.8 mph - 0.01 in Rain Light Rain
9:35 PM 67.1 °F - 65.7 °F 95% 29.82 in 10.0 mi SSE 6.9 mph - 0.02 in Rain Light Rain
9:55 PM 66.2 °F - 62.4 °F 88% 29.81 in 10.0 mi South 3.5 mph - 0.02 in Rain Light Rain
10:15 PM 65.7 °F - 63.5 °F 93% 29.83 in 10.0 mi Calm Calm - N/A   Mostly Cloudy
10:35 PM 65.1 °F - 63.5 °F 94% 29.85 in 10.0 mi West 3.5 mph - N/A   Mostly Cloudy
10:55 PM 64.4 °F - 60.6 °F 88% 29.86 in 10.0 mi SW 8.1 mph - N/A   Overcast
11:15 PM 63.5 °F - 56.1 °F 77% 29.88 in 10.0 mi WSW 5.8 mph - N/A Rain Light Rain
11:35 PM 61.5 °F - 52.3 °F 72% 29.88 in 10.0 mi SSW 9.2 mph - N/A Rain Light Rain
11:55 PM 58.5 °F - 52.2 °F 80% 29.89 in 10.0 mi Calm Calm - 0.01 in Rain Light Rain